,,PressureMeas_1m,,PRMeasQMR101_1,,RHStat155_1m_1,,SRMeasQMS101R_1m,,TAStat155_1m_1,,GenWind_1,,GenWind_1,
2017-08-12, 00:00:07,VALID,919.335,VALID,0.0,VALID,98.912,VALID,-0.002,VALID,19.026,VALID,347.0,VALID,0.614,
2017-08-12, 00:01:07,VALID,919.301,VALID,0.0,VALID,98.928,VALID,-0.005,VALID,19.047,VALID,343.0,VALID,0.512,
2017-08-12, 00:02:07,VALID,919.28,VALID,0.0,VALID,98.937,VALID,-0.016,VALID,19.051,VALID,330.0,VALID,0.593,
2017-08-12, 00:03:07,VALID,919.267,VALID,0.0,VALID,98.93,VALID,-0.004,VALID,19.059,VALID,288.0,VALID,0.397,
2017-08-12, 00:04:07,VALID,919.242,VALID,0.0,VALID,98.922,VALID,-0.016,VALID,19.072,VALID,309.0,VALID,0.466,
2017-08-12, 00:05:07,VALID,919.24,VALID,0.0,VALID,98.919,VALID,-0.016,VALID,19.06,VALID,360.0,VALID,0.598,
2017-08-12, 00:06:07,VALID,919.245,VALID,0.0,VALID,98.911,VALID,-0.013,VALID,19.041,VALID,357.0,VALID,0.825,
2017-08-12, 00:07:07,VALID,919.247,VALID,0.0,VALID,98.933,VALID,-0.0,VALID,19.046,VALID,358.0,VALID,1.271,
2017-08-12, 00:08:07,VALID,919.253,VALID,0.0,VALID,98.913,VALID,-0.011,VALID,19.057,VALID,11.0,VALID,0.936,
2017-08-12, 00:09:07,VALID,919.245,VALID,0.0,VALID,98.929,VALID,-0.013,VALID,19.068,VALID,2.0,VALID,0.966,
2017-08-12, 00:10:07,VALID,919.256,VALID,0.0,VALID,98.922,VALID,0.001,VALID,19.082,VALID,359.0,VALID,0.903,
2017-08-12, 00:11:07,VALID,919.244,VALID,0.0,VALID,98.943,VALID,0.023,VALID,19.078,VALID,356.0,VALID,0.911,
2017-08-12, 00:12:07,VALID,919.24,VALID,0.0,VALID,98.951,VALID,0.02,VALID,19.075,VALID,359.0,VALID,0.841,
2017-08-12, 00:13:07,VALID,919.238,VALID,0.0,VALID,98.934,VALID,0.026,VALID,19.09,VALID,360.0,VALID,0.782,
2017-08-12, 00:14:07,VALID,919.235,VALID,0.0,VALID,98.934,VALID,0.035,VALID,19.093,VALID,360.0,VALID,0.858,
2017-08-12, 00:15:07,VALID,919.232,VALID,0.0,VALID,98.909,VALID,0.038,VALID,19.096,VALID,4.0,VALID,1.061,
2017-08-12, 00:16:07,VALID,919.224,VALID,0.0,VALID,98.951,VALID,0.049,VALID,19.099,VALID,6.0,VALID,0.87,
2017-08-12, 00:17:07,VALID,919.214,VALID,0.0,VALID,98.924,VALID,0.04,VALID,19.092,VALID,3.0,VALID,1.278,
2017-08-12, 00:18:07,VALID,919.205,VALID,0.0,VALID,98.923,VALID,0.044,VALID,19.115,VALID,5.0,VALID,0.903,
2017-08-12, 00:19:07,VALID,919.18,VALID,0.0,VALID,98.932,VALID,0.016,VALID,19.116,VALID,5.0,VALID,1.414,
2017-08-12, 00:20:07,VALID,919.161,VALID,0.0,VALID,98.906,VALID,0.032,VALID,19.127,VALID,8.0,VALID,1.306,
2017-08-12, 00:21:07,VALID,919.162,VALID,0.0,VALID,98.904,VALID,0.049,VALID,19.138,VALID,351.0,VALID,0.9,
2017-08-12, 00:22:07,VALID,919.147,VALID,0.0,VALID,98.896,VALID,0.039,VALID,19.114,VALID,358.0,VALID,1.1,
2017-08-12, 00:23:07,VALID,919.157,VALID,0.0,VALID,98.872,VALID,0.038,VALID,19.092,VALID,6.0,VALID,1.131,
2017-08-12, 00:24:07,VALID,919.146,VALID,0.0,VALID,98.869,VALID,0.044,VALID,19.108,VALID,357.0,VALID,0.934,
2017-08-12, 00:25:07,VALID,919.162,VALID,0.0,VALID,98.86,VALID,-0.002,VALID,19.107,VALID,353.0,VALID,0.558,
2017-08-12, 00:26:07,VALID,919.149,VALID,0.0,VALID,98.83,VALID,-0.014,VALID,19.103,VALID,7.0,VALID,0.559,
2017-08-12, 00:27:07,VALID,919.15,VALID,0.0,VALID,98.808,VALID,0.02,VALID,19.083,VALID,345.0,VALID,0.689,
2017-08-12, 00:28:07,VALID,919.122,VALID,0.0,VALID,98.819,VALID,-0.01,VALID,19.087,VALID,344.0,VALID,0.732,
2017-08-12, 00:29:07,VALID,919.113,VALID,0.0,VALID,98.82,VALID,-0.006,VALID,19.09,VALID,355.0,VALID,0.84,
2017-08-12, 00:30:07,VALID,919.106,VALID,0.0,VALID,98.821,VALID,0.009,VALID,19.084,VALID,353.0,VALID,0.861,
2017-08-12, 00:31:07,VALID,919.1,VALID,0.0,VALID,98.798,VALID,-0.004,VALID,19.097,VALID,351.0,VALID,0.977,
2017-08-12, 00:32:07,VALID,919.095,VALID,0.0,VALID,98.796,VALID,0.0,VALID,19.091,VALID,3.0,VALID,0.576,
2017-08-12, 00:33:07,VALID,919.097,VALID,0.0,VALID,98.771,VALID,-0.002,VALID,19.088,VALID,349.0,VALID,0.482,
2017-08-12, 00:34:07,VALID,919.094,VALID,0.0,VALID,98.756,VALID,0.001,VALID,19.082,VALID,322.0,VALID,0.158,
2017-08-12, 00:35:07,VALID,919.096,VALID,0.0,VALID,98.762,VALID,-0.003,VALID,19.097,VALID,342.0,VALID,0.2,
2017-08-12, 00:36:07,VALID,919.092,VALID,0.0,VALID,98.764,VALID,-0.001,VALID,19.101,VALID,318.0,VALID,0.284,
2017-08-12, 00:37:07,VALID,919.091,VALID,0.0,VALID,98.786,VALID,-0.002,VALID,19.103,VALID,333.0,VALID,0.196,
2017-08-12, 00:38:07,VALID,919.084,VALID,0.0,VALID,98.776,VALID,-0.008,VALID,19.109,VALID,306.0,VALID,0.216,
2017-08-12, 00:39:07,VALID,919.072,VALID,0.0,VALID,98.755,VALID,-0.006,VALID,19.121,VALID,360.0,VALID,0.257,
2017-08-12, 00:40:07,VALID,919.066,VALID,0.0,VALID,98.763,VALID,0.001,VALID,19.115,VALID,338.0,VALID,0.67,
2017-08-12, 00:41:07,VALID,919.059,VALID,0.0,VALID,98.74,VALID,-0.007,VALID,19.107,VALID,307.0,VALID,0.434,
2017-08-12, 00:42:07,VALID,919.041,VALID,0.0,VALID,98.743,VALID,-0.006,VALID,19.123,VALID,296.0,VALID,0.032,
2017-08-12, 00:43:07,VALID,919.027,VALID,0.0,VALID,98.756,VALID,0.01,VALID,19.133,VALID,329.0,VALID,0.23,
2017-08-12, 00:44:07,VALID,919.011,VALID,0.0,VALID,98.734,VALID,-0.023,VALID,19.131,VALID,355.0,VALID,0.775,
2017-08-12, 00:45:07,VALID,919.002,VALID,0.0,VALID,98.701,VALID,0.002,VALID,19.106,VALID,4.0,VALID,0.612,
2017-08-12, 00:46:07,VALID,919.0,VALID,0.0,VALID,98.702,VALID,-0.001,VALID,19.083,VALID,353.0,VALID,1.035,
2017-08-12, 00:47:07,VALID,918.981,VALID,0.0,VALID,98.675,VALID,-0.004,VALID,19.088,VALID,4.0,VALID,0.482,
2017-08-12, 00:48:07,VALID,918.977,VALID,0.0,VALID,98.656,VALID,-0.009,VALID,19.086,VALID,347.0,VALID,0.175,
2017-08-12, 00:49:07,VALID,918.96,VALID,0.0,VALID,98.681,VALID,-0.031,VALID,19.103,VALID,327.0,VALID,0.245,
2017-08-12, 00:50:07,VALID,918.946,VALID,0.0,VALID,98.668,VALID,-0.021,VALID,19.111,VALID,343.0,VALID,0.505,
2017-08-12, 00:51:07,VALID,918.927,VALID,0.0,VALID,98.649,VALID,-0.008,VALID,19.104,VALID,4.0,VALID,0.961,
2017-08-12, 00:52:07,VALID,918.919,VALID,0.0,VALID,98.652,VALID,0.01,VALID,19.112,VALID,2.0,VALID,1.21,
2017-08-12, 00:53:07,VALID,918.924,VALID,0.0,VALID,98.638,VALID,-0.009,VALID,19.128,VALID,10.0,VALID,1.007,
2017-08-12, 00:54:07,VALID,918.913,VALID,0.0,VALID,98.561,VALID,0.001,VALID,19.101,VALID,5.0,VALID,1.15,
2017-08-12, 00:55:07,VALID,918.913,VALID,0.0,VALID,98.549,VALID,0.003,VALID,19.108,VALID,357.0,VALID,0.968,
2017-08-12, 00:56:07,VALID,918.92,VALID,0.0,VALID,98.543,VALID,0.001,VALID,19.114,VALID,348.0,VALID,1.012,
2017-08-12, 00:57:07,VALID,918.906,VALID,0.0,VALID,98.524,VALID,-0.008,VALID,19.119,VALID,345.0,VALID,1.041,
2017-08-12, 00:58:07,VALID,918.905,VALID,0.0,VALID,98.493,VALID,-0.007,VALID,19.112,VALID,349.0,VALID,0.778,
2017-08-12, 00:59:07,VALID,918.871,VALID,0.0,VALID,98.488,VALID,-0.014,VALID,19.109,VALID,356.0,VALID,0.854,
2017-08-12, 01:00:07,VALID,918.877,VALID,0.0,VALID,98.509,VALID,0.006,VALID,19.099,VALID,359.0,VALID,0.955,
2017-08-12, 01:01:07,VALID,918.864,VALID,0.0,VALID,98.5,VALID,-0.002,VALID,19.094,VALID,2.0,VALID,1.08,
2017-08-12, 01:02:07,VALID,918.866,VALID,0.0,VALID,98.492,VALID,0.004,VALID,19.092,VALID,349.0,VALID,0.927,
2017-08-12, 01:03:07,VALID,918.871,VALID,0.0,VALID,98.536,VALID,-0.005,VALID,19.093,VALID,341.0,VALID,0.997,
2017-08-12, 01:04:07,VALID,918.86,VALID,0.0,VALID,98.521,VALID,-0.01,VALID,19.092,VALID,3.0,VALID,1.128,
2017-08-12, 01:05:07,VALID,918.851,VALID,0.0,VALID,98.517,VALID,-0.013,VALID,19.083,VALID,353.0,VALID,1.064,
2017-08-12, 01:06:07,VALID,918.84,VALID,0.0,VALID,98.528,VALID,-0.023,VALID,19.098,VALID,360.0,VALID,0.972,
2017-08-12, 01:07:07,VALID,918.801,VALID,0.0,VALID,98.532,VALID,-0.022,VALID,19.1,VALID,16.0,VALID,1.3,
2017-08-12, 01:08:07,VALID,918.808,VALID,0.0,VALID,98.545,VALID,-0.009,VALID,19.098,VALID,5.0,VALID,1.016,
2017-08-12, 01:09:07,VALID,918.792,VALID,0.0,VALID,98.506,VALID,-0.011,VALID,19.085,VALID,2.0,VALID,1.027,
2017-08-12, 01:10:07,VALID,918.786,VALID,0.0,VALID,98.486,VALID,0.009,VALID,19.072,VALID,352.0,VALID,0.721,
2017-08-12, 01:11:07,VALID,918.777,VALID,0.0,VALID,98.474,VALID,0.014,VALID,19.064,VALID,344.0,VALID,0.689,
2017-08-12, 01:12:07,VALID,918.757,VALID,0.0,VALID,98.48,VALID,0.021,VALID,19.071,VALID,355.0,VALID,1.212,
2017-08-12, 01:13:07,VALID,918.747,VALID,0.0,VALID,98.469,VALID,0.039,VALID,19.074,VALID,2.0,VALID,1.087,
2017-08-12, 01:14:07,VALID,918.737,VALID,0.0,VALID,98.45,VALID,0.018,VALID,19.064,VALID,356.0,VALID,1.173,
2017-08-12, 01:15:07,VALID,918.729,VALID,0.0,VALID,98.442,VALID,0.024,VALID,19.065,VALID,354.0,VALID,1.013,
2017-08-12, 01:16:07,VALID,918.72,VALID,0.0,VALID,98.417,VALID,0.032,VALID,19.06,VALID,347.0,VALID,0.816,
2017-08-12, 01:17:07,VALID,918.724,VALID,0.0,VALID,98.414,VALID,0.033,VALID,19.055,VALID,352.0,VALID,1.084,
2017-08-12, 01:18:07,VALID,918.72,VALID,0.0,VALID,98.429,VALID,0.027,VALID,19.068,VALID,348.0,VALID,0.668,
2017-08-12, 01:19:07,VALID,918.704,VALID,0.0,VALID,98.43,VALID,0.026,VALID,19.069,VALID,355.0,VALID,0.681,
2017-08-12, 01:20:07,VALID,918.704,VALID,0.0,VALID,98.419,VALID,0.015,VALID,19.05,VALID,358.0,VALID,0.768,
2017-08-12, 01:21:07,VALID,918.695,VALID,0.0,VALID,98.449,VALID,0.018,VALID,19.061,VALID,351.0,VALID,1.15,
2017-08-12, 01:22:07,VALID,918.677,VALID,0.0,VALID,98.465,VALID,0.016,VALID,19.096,VALID,342.0,VALID,0.664,
2017-08-12, 01:23:07,VALID,918.67,VALID,0.0,VALID,98.461,VALID,0.037,VALID,19.095,VALID,342.0,VALID,0.516,
2017-08-12, 01:24:07,VALID,918.659,VALID,0.0,VALID,98.437,VALID,0.019,VALID,19.072,VALID,359.0,VALID,0.721,
2017-08-12, 01:25:06,VALID,918.637,VALID,0.0,VALID,98.445,VALID,0.004,VALID,19.082,VALID,335.0,VALID,0.661,
2017-08-12, 01:26:06,VALID,918.629,VALID,0.0,VALID,98.465,VALID,0.011,VALID,19.084,VALID,343.0,VALID,0.571,
2017-08-12, 01:27:06,VALID,918.617,VALID,0.0,VALID,98.454,VALID,-0.01,VALID,19.086,VALID,357.0,VALID,0.233,
2017-08-12, 01:28:06,VALID,918.611,VALID,0.0,VALID,98.473,VALID,-0.018,VALID,19.092,VALID,324.0,VALID,0.067,
2017-08-12, 01:29:06,VALID,918.601,VALID,0.0,VALID,98.471,VALID,-0.008,VALID,19.089,VALID,342.0,VALID,0.052,
2017-08-12, 01:30:06,VALID,918.595,VALID,0.0,VALID,98.489,VALID,-0.022,VALID,19.086,VALID,7.0,VALID,0.211,
2017-08-12, 01:31:06,VALID,918.594,VALID,0.0,VALID,98.495,VALID,-0.022,VALID,19.081,VALID,357.0,VALID,0.362,
2017-08-12, 01:32:06,VALID,918.593,VALID,0.0,VALID,98.508,VALID,-0.006,VALID,19.081,VALID,4.0,VALID,0.659,
2017-08-12, 01:33:06,VALID,918.584,VALID,0.0,VALID,98.509,VALID,-0.012,VALID,19.086,VALID,1.0,VALID,0.479,
2017-08-12, 01:34:06,VALID,918.58,VALID,0.0,VALID,98.529,VALID,-0.018,VALID,19.098,VALID,350.0,VALID,0.687,
2017-08-12, 01:35:06,VALID,918.571,VALID,0.0,VALID,98.51,VALID,-0.023,VALID,19.112,VALID,339.0,VALID,0.432,
2017-08-12, 01:36:06,VALID,918.557,VALID,0.0,VALID,98.498,VALID,-0.018,VALID,19.119,VALID,340.0,VALID,0.28,
2017-08-12, 01:37:06,VALID,918.572,VALID,0.0,VALID,98.532,VALID,-0.016,VALID,19.141,VALID,341.0,VALID,0.136,
2017-08-12, 01:38:06,VALID,918.563,VALID,0.0,VALID,98.516,VALID,-0.019,VALID,19.153,VALID,347.0,VALID,0.334,
2017-08-12, 01:39:06,VALID,918.572,VALID,0.0,VALID,98.513,VALID,0.002,VALID,19.158,VALID,4.0,VALID,0.261,
2017-08-12, 01:40:06,VALID,918.556,VALID,0.0,VALID,98.477,VALID,-0.005,VALID,19.155,VALID,17.0,VALID,0.368,
2017-08-12, 01:41:06,VALID,918.552,VALID,0.0,VALID,98.485,VALID,-0.007,VALID,19.155,VALID,348.0,VALID,0.166,
2017-08-12, 01:42:06,VALID,918.526,VALID,0.0,VALID,98.464,VALID,-0.01,VALID,19.157,VALID,16.0,VALID,0.198,
2017-08-12, 01:43:06,VALID,918.505,VALID,0.0,VALID,98.459,VALID,-0.001,VALID,19.178,VALID,15.0,VALID,0.182,
2017-08-12, 01:44:06,VALID,918.48,VALID,0.0,VALID,98.457,VALID,-0.017,VALID,19.184,VALID,7.0,VALID,0.248,
2017-08-12, 01:45:06,VALID,918.463,VALID,0.0,VALID,98.44,VALID,-0.011,VALID,19.181,VALID,6.0,VALID,0.268,
2017-08-12, 01:46:06,VALID,918.456,VALID,0.0,VALID,98.434,VALID,-0.0,VALID,19.187,VALID,15.0,VALID,0.244,
2017-08-12, 01:47:06,VALID,918.458,VALID,0.0,VALID,98.416,VALID,0.017,VALID,19.19,VALID,24.0,VALID,0.071,
2017-08-12, 01:48:06,VALID,918.446,VALID,0.0,VALID,98.39,VALID,0.005,VALID,19.172,VALID,22.0,VALID,0.002,
2017-08-12, 01:49:06,VALID,918.461,VALID,0.0,VALID,98.401,VALID,0.004,VALID,19.162,VALID,19.0,VALID,0.0,
2017-08-12, 01:50:06,VALID,918.459,VALID,0.0,VALID,98.405,VALID,-0.002,VALID,19.163,VALID,19.0,VALID,0.0,
2017-08-12, 01:51:06,VALID,918.456,VALID,0.0,VALID,98.4,VALID,-0.007,VALID,19.156,VALID,20.0,VALID,0.0,
2017-08-12, 01:52:06,VALID,918.453,VALID,0.0,VALID,98.403,VALID,0.006,VALID,19.154,VALID,19.0,VALID,0.0,
2017-08-12, 01:53:06,VALID,918.439,VALID,0.0,VALID,98.426,VALID,0.004,VALID,19.162,VALID,23.0,VALID,0.044,
2017-08-12, 01:54:06,VALID,918.435,VALID,0.0,VALID,98.441,VALID,-0.012,VALID,19.178,VALID,24.0,VALID,0.261,
2017-08-12, 01:55:06,VALID,918.412,VALID,0.0,VALID,98.436,VALID,-0.007,VALID,19.174,VALID,24.0,VALID,0.25,
2017-08-12, 01:56:06,VALID,918.407,VALID,0.0,VALID,98.426,VALID,0.004,VALID,19.169,VALID,19.0,VALID,0.302,
2017-08-12, 01:57:06,VALID,918.401,VALID,0.0,VALID,98.419,VALID,-0.004,VALID,19.168,VALID,1.0,VALID,0.444,
2017-08-12, 01:58:06,VALID,918.382,VALID,0.0,VALID,98.392,VALID,-0.008,VALID,19.168,VALID,358.0,VALID,0.468,
2017-08-12, 01:59:06,VALID,918.367,VALID,0.0,VALID,98.38,VALID,0.001,VALID,19.169,VALID,3.0,VALID,0.405,
2017-08-12, 02:00:06,VALID,918.363,VALID,0.0,VALID,98.363,VALID,0.0,VALID,19.165,VALID,10.0,VALID,0.425,
2017-08-12, 02:01:06,VALID,918.366,VALID,0.0,VALID,98.36,VALID,0.003,VALID,19.164,VALID,23.0,VALID,0.416,
2017-08-12, 02:02:06,VALID,918.363,VALID,0.0,VALID,98.396,VALID,0.004,VALID,19.176,VALID,17.0,VALID,0.507,
2017-08-12, 02:03:06,VALID,918.355,VALID,0.0,VALID,98.37,VALID,0.011,VALID,19.16,VALID,20.0,VALID,0.709,
2017-08-12, 02:04:06,VALID,918.359,VALID,0.0,VALID,98.335,VALID,0.017,VALID,19.152,VALID,13.0,VALID,0.443,
2017-08-12, 02:05:06,VALID,918.346,VALID,0.0,VALID,98.311,VALID,-0.001,VALID,19.138,VALID,14.0,VALID,0.202,
2017-08-12, 02:06:06,VALID,918.334,VALID,0.0,VALID,98.306,VALID,0.014,VALID,19.121,VALID,22.0,VALID,0.323,
2017-08-12, 02:07:06,VALID,918.313,VALID,0.0,VALID,98.311,VALID,-0.001,VALID,19.108,VALID,3.0,VALID,0.373,
2017-08-12, 02:08:06,VALID,918.29,VALID,0.0,VALID,98.311,VALID,-0.002,VALID,19.101,VALID,5.0,VALID,0.496,
2017-08-12, 02:09:06,VALID,918.28,VALID,0.0,VALID,98.349,VALID,-0.02,VALID,19.1,VALID,360.0,VALID,0.539,
2017-08-12, 02:10:06,VALID,918.256,VALID,0.0,VALID,98.316,VALID,0.004,VALID,19.097,VALID,12.0,VALID,0.655,
2017-08-12, 02:11:06,VALID,918.25,VALID,0.0,VALID,98.335,VALID,0.008,VALID,19.088,VALID,18.0,VALID,0.613,
2017-08-12, 02:12:06,VALID,918.236,VALID,0.0,VALID,98.339,VALID,0.004,VALID,19.087,VALID,21.0,VALID,0.479,
2017-08-12, 02:13:06,VALID,918.244,VALID,0.0,VALID,98.347,VALID,0.011,VALID,19.081,VALID,34.0,VALID,0.47,
2017-08-12, 02:14:06,VALID,918.24,VALID,0.0,VALID,98.335,VALID,0.032,VALID,19.06,VALID,36.0,VALID,0.556,
2017-08-12, 02:15:06,VALID,918.243,VALID,0.0,VALID,98.343,VALID,0.025,VALID,19.034,VALID,26.0,VALID,0.512,
2017-08-12, 02:16:06,VALID,918.252,VALID,0.0,VALID,98.355,VALID,0.011,VALID,19.023,VALID,35.0,VALID,0.658,
2017-08-12, 02:17:06,VALID,918.262,VALID,0.0,VALID,98.394,VALID,0.022,VALID,19.027,VALID,34.0,VALID,0.624,
2017-08-12, 02:18:06,VALID,918.265,VALID,0.0,VALID,98.399,VALID,0.02,VALID,19.014,VALID,42.0,VALID,0.484,
2017-08-12, 02:19:06,VALID,918.273,VALID,0.0,VALID,98.409,VALID,0.015,VALID,19.015,VALID,30.0,VALID,0.441,
2017-08-12, 02:20:06,VALID,918.278,VALID,0.0,VALID,98.428,VALID,0.025,VALID,19.03,VALID,16.0,VALID,0.496,
2017-08-12, 02:21:06,VALID,918.263,VALID,0.0,VALID,98.454,VALID,0.007,VALID,19.055,VALID,18.0,VALID,0.839,
2017-08-12, 02:22:06,VALID,918.261,VALID,0.0,VALID,98.449,VALID,-0.002,VALID,19.064,VALID,17.0,VALID,0.395,
2017-08-12, 02:23:06,VALID,918.253,VALID,0.0,VALID,98.444,VALID,0.02,VALID,19.068,VALID,18.0,VALID,0.018,
2017-08-12, 02:24:06,VALID,918.246,VALID,0.0,VALID,98.441,VALID,0.012,VALID,19.071,VALID,4.0,VALID,0.197,
2017-08-12, 02:25:06,VALID,918.239,VALID,0.0,VALID,98.469,VALID,0.001,VALID,19.074,VALID,317.0,VALID,0.405,
2017-08-12, 02:26:06,VALID,918.235,VALID,0.0,VALID,98.467,VALID,0.007,VALID,19.083,VALID,282.0,VALID,0.256,
2017-08-12, 02:27:06,VALID,918.231,VALID,0.0,VALID,98.483,VALID,0.003,VALID,19.102,VALID,299.0,VALID,0.448,
2017-08-12, 02:28:06,VALID,918.227,VALID,0.0,VALID,98.503,VALID,-0.002,VALID,19.107,VALID,309.0,VALID,0.315,
2017-08-12, 02:29:06,VALID,918.214,VALID,0.0,VALID,98.521,VALID,0.012,VALID,19.11,VALID,316.0,VALID,0.362,
2017-08-12, 02:30:06,VALID,918.216,VALID,0.0,VALID,98.503,VALID,0.007,VALID,19.099,VALID,329.0,VALID,0.473,
2017-08-12, 02:31:06,VALID,918.205,VALID,0.0,VALID,98.507,VALID,0.001,VALID,19.09,VALID,322.0,VALID,0.37,
2017-08-12, 02:32:06,VALID,918.19,VALID,0.0,VALID,98.534,VALID,-0.01,VALID,19.089,VALID,340.0,VALID,0.35,
2017-08-12, 02:33:06,VALID,918.164,VALID,0.0,VALID,98.542,VALID,0.002,VALID,19.074,VALID,306.0,VALID,0.438,
2017-08-12, 02:34:06,VALID,918.153,VALID,0.0,VALID,98.538,VALID,0.015,VALID,19.052,VALID,276.0,VALID,0.106,
2017-08-12, 02:35:06,VALID,918.128,VALID,0.0,VALID,98.605,VALID,0.013,VALID,19.071,VALID,275.0,VALID,0.0,
2017-08-12, 02:36:06,VALID,918.095,VALID,0.0,VALID,98.628,VALID,0.018,VALID,19.104,VALID,275.0,VALID,0.0,
2017-08-12, 02:37:06,VALID,918.094,VALID,0.0,VALID,98.619,VALID,-0.001,VALID,19.118,VALID,263.0,VALID,0.156,
2017-08-12, 02:38:06,VALID,918.084,VALID,0.0,VALID,98.605,VALID,0.002,VALID,19.087,VALID,248.0,VALID,0.416,
2017-08-12, 02:39:06,VALID,918.074,VALID,0.0,VALID,98.621,VALID,0.0,VALID,19.06,VALID,247.0,VALID,0.157,
2017-08-12, 02:40:06,VALID,918.052,VALID,0.0,VALID,98.629,VALID,-0.009,VALID,19.057,VALID,239.0,VALID,0.044,
2017-08-12, 02:41:06,VALID,918.02,VALID,0.0,VALID,98.655,VALID,-0.012,VALID,19.063,VALID,235.0,VALID,0.0,
2017-08-12, 02:42:06,VALID,918.007,VALID,0.0,VALID,98.666,VALID,-0.003,VALID,19.076,VALID,235.0,VALID,0.0,
2017-08-12, 02:43:06,VALID,917.989,VALID,0.0,VALID,98.679,VALID,-0.019,VALID,19.091,VALID,235.0,VALID,0.089,
2017-08-12, 02:44:06,VALID,917.983,VALID,0.0,VALID,98.691,VALID,-0.023,VALID,19.085,VALID,235.0,VALID,0.009,
2017-08-12, 02:45:06,VALID,917.971,VALID,0.0,VALID,98.685,VALID,-0.035,VALID,19.085,VALID,235.0,VALID,0.0,
2017-08-12, 02:46:06,VALID,917.958,VALID,0.0,VALID,98.69,VALID,-0.02,VALID,19.082,VALID,235.0,VALID,0.0,
2017-08-12, 02:47:06,VALID,917.942,VALID,0.0,VALID,98.684,VALID,-0.025,VALID,19.084,VALID,235.0,VALID,0.029,
2017-08-12, 02:48:06,VALID,917.919,VALID,0.0,VALID,98.695,VALID,-0.022,VALID,19.085,VALID,235.0,VALID,0.0,
2017-08-12, 02:49:06,VALID,917.917,VALID,0.0,VALID,98.717,VALID,-0.039,VALID,19.096,VALID,256.0,VALID,0.046,
2017-08-12, 02:50:06,VALID,917.908,VALID,0.0,VALID,98.731,VALID,-0.018,VALID,19.093,VALID,17.0,VALID,0.375,
2017-08-12, 02:51:06,VALID,917.894,VALID,0.0,VALID,98.688,VALID,-0.019,VALID,19.058,VALID,12.0,VALID,0.529,
2017-08-12, 02:52:06,VALID,917.896,VALID,0.0,VALID,98.699,VALID,-0.046,VALID,19.03,VALID,3.0,VALID,0.425,
2017-08-12, 02:53:06,VALID,917.892,VALID,0.0,VALID,98.706,VALID,-0.021,VALID,19.028,VALID,359.0,VALID,0.148,
2017-08-12, 02:54:06,VALID,917.901,VALID,0.0,VALID,98.693,VALID,-0.025,VALID,19.021,VALID,335.0,VALID,0.348,
2017-08-12, 02:55:06,VALID,917.9,VALID,0.0,VALID,98.717,VALID,-0.007,VALID,19.028,VALID,293.0,VALID,0.16,
2017-08-12, 02:56:06,VALID,917.901,VALID,0.0,VALID,98.738,VALID,0.011,VALID,19.041,VALID,286.0,VALID,0.001,
2017-08-12, 02:57:06,VALID,917.89,VALID,0.0,VALID,98.732,VALID,0.021,VALID,19.055,VALID,286.0,VALID,0.0,
2017-08-12, 02:58:06,VALID,917.883,VALID,0.0,VALID,98.737,VALID,0.017,VALID,19.076,VALID,277.0,VALID,0.001,
2017-08-12, 02:59:06,VALID,917.882,VALID,0.0,VALID,98.733,VALID,0.008,VALID,19.097,VALID,268.0,VALID,0.028,
2017-08-12, 03:00:06,VALID,917.861,VALID,0.0,VALID,98.739,VALID,0.009,VALID,19.106,VALID,289.0,VALID,0.097,
2017-08-12, 03:01:06,VALID,917.851,VALID,0.0,VALID,98.735,VALID,0.001,VALID,19.098,VALID,351.0,VALID,0.426,
2017-08-12, 03:02:06,VALID,917.851,VALID,0.0,VALID,98.745,VALID,0.014,VALID,19.107,VALID,3.0,VALID,0.032,
2017-08-12, 03:03:06,VALID,917.851,VALID,0.0,VALID,98.725,VALID,0.01,VALID,19.103,VALID,283.0,VALID,0.195,
2017-08-12, 03:04:06,VALID,917.852,VALID,0.0,VALID,98.699,VALID,0.003,VALID,19.083,VALID,265.0,VALID,0.069,
2017-08-12, 03:05:06,VALID,917.861,VALID,0.0,VALID,98.707,VALID,0.011,VALID,19.082,VALID,265.0,VALID,0.0,
2017-08-12, 03:06:06,VALID,917.862,VALID,0.0,VALID,98.74,VALID,0.036,VALID,19.114,VALID,265.0,VALID,0.0,
2017-08-12, 03:07:06,VALID,917.875,VALID,0.0,VALID,98.748,VALID,0.022,VALID,19.153,VALID,336.0,VALID,0.303,
2017-08-12, 03:08:06,VALID,917.876,VALID,0.0,VALID,98.754,VALID,0.014,VALID,19.191,VALID,21.0,VALID,0.077,
2017-08-12, 03:09:06,VALID,917.893,VALID,0.0,VALID,98.751,VALID,0.01,VALID,19.192,VALID,27.0,VALID,0.013,
2017-08-12, 03:10:06,VALID,917.893,VALID,0.0,VALID,98.759,VALID,-0.007,VALID,19.195,VALID,27.0,VALID,0.0,
2017-08-12, 03:11:06,VALID,917.901,VALID,0.0,VALID,98.753,VALID,-0.017,VALID,19.202,VALID,3.0,VALID,0.062,
2017-08-12, 03:12:06,VALID,917.903,VALID,0.0,VALID,98.733,VALID,-0.012,VALID,19.19,VALID,346.0,VALID,0.0,
2017-08-12, 03:13:06,VALID,917.918,VALID,0.0,VALID,98.721,VALID,0.0,VALID,19.183,VALID,346.0,VALID,0.0,
2017-08-12, 03:14:06,VALID,917.932,VALID,0.0,VALID,98.706,VALID,-0.005,VALID,19.179,VALID,346.0,VALID,0.14,
2017-08-12, 03:15:06,VALID,917.947,VALID,0.0,VALID,98.711,VALID,-0.012,VALID,19.181,VALID,7.0,VALID,0.162,
2017-08-12, 03:16:06,VALID,917.957,VALID,0.0,VALID,98.696,VALID,-0.007,VALID,19.199,VALID,26.0,VALID,0.272,
2017-08-12, 03:17:06,VALID,917.971,VALID,0.0,VALID,98.679,VALID,-0.007,VALID,19.179,VALID,27.0,VALID,0.382,
2017-08-12, 03:18:06,VALID,917.992,VALID,0.0,VALID,98.66,VALID,-0.02,VALID,19.153,VALID,31.0,VALID,0.401,
2017-08-12, 03:19:06,VALID,918.001,VALID,0.0,VALID,98.654,VALID,-0.005,VALID,19.155,VALID,38.0,VALID,0.488,
2017-08-12, 03:20:06,VALID,918.014,VALID,0.0,VALID,98.659,VALID,0.004,VALID,19.155,VALID,40.0,VALID,0.526,
2017-08-12, 03:21:06,VALID,918.029,VALID,0.0,VALID,98.607,VALID,-0.014,VALID,19.151,VALID,40.0,VALID,0.626,
2017-08-12, 03:22:06,VALID,918.034,VALID,0.0,VALID,98.603,VALID,-0.006,VALID,19.144,VALID,40.0,VALID,0.439,
2017-08-12, 03:23:06,VALID,918.036,VALID,0.0,VALID,98.615,VALID,0.011,VALID,19.156,VALID,27.0,VALID,0.246,
2017-08-12, 03:24:06,VALID,918.036,VALID,0.0,VALID,98.615,VALID,0.012,VALID,19.175,VALID,13.0,VALID,0.367,
2017-08-12, 03:25:06,VALID,918.038,VALID,0.0,VALID,98.62,VALID,-0.004,VALID,19.175,VALID,10.0,VALID,0.311,
2017-08-12, 03:26:06,VALID,918.022,VALID,0.0,VALID,98.608,VALID,0.001,VALID,19.186,VALID,1.0,VALID,0.395,
2017-08-12, 03:27:06,VALID,918.015,VALID,0.0,VALID,98.6,VALID,-0.021,VALID,19.179,VALID,1.0,VALID,0.243,
2017-08-12, 03:28:06,VALID,918.008,VALID,0.0,VALID,98.621,VALID,-0.011,VALID,19.195,VALID,1.0,VALID,0.24,
2017-08-12, 03:29:06,VALID,918.012,VALID,0.0,VALID,98.596,VALID,-0.015,VALID,19.197,VALID,12.0,VALID,0.289,
2017-08-12, 03:30:06,VALID,917.989,VALID,0.0,VALID,98.582,VALID,-0.014,VALID,19.188,VALID,27.0,VALID,0.552,
2017-08-12, 03:31:06,VALID,917.965,VALID,0.0,VALID,98.578,VALID,-0.027,VALID,19.181,VALID,34.0,VALID,0.541,
2017-08-12, 03:32:06,VALID,917.956,VALID,0.0,VALID,98.544,VALID,-0.017,VALID,19.171,VALID,30.0,VALID,0.436,
2017-08-12, 03:33:06,VALID,917.952,VALID,0.0,VALID,98.559,VALID,-0.034,VALID,19.17,VALID,23.0,VALID,0.081,
2017-08-12, 03:34:06,VALID,917.963,VALID,0.0,VALID,98.57,VALID,-0.027,VALID,19.181,VALID,338.0,VALID,0.221,
2017-08-12, 03:35:06,VALID,917.965,VALID,0.0,VALID,98.558,VALID,-0.024,VALID,19.19,VALID,329.0,VALID,0.096,
2017-08-12, 03:36:06,VALID,917.971,VALID,0.0,VALID,98.554,VALID,-0.016,VALID,19.198,VALID,323.0,VALID,0.088,
2017-08-12, 03:37:06,VALID,917.976,VALID,0.0,VALID,98.563,VALID,-0.018,VALID,19.211,VALID,310.0,VALID,0.002,
2017-08-12, 03:38:06,VALID,917.976,VALID,0.0,VALID,98.556,VALID,-0.015,VALID,19.226,VALID,310.0,VALID,0.0,
2017-08-12, 03:39:06,VALID,917.974,VALID,0.0,VALID,98.574,VALID,-0.015,VALID,19.244,VALID,310.0,VALID,0.015,